• în Republica Moldova
  • Lista ţărilor
  • Pe 7 zile
  • Temperatura apei
  • Hartă satelitară
  • Meteo pe hartă
  • Widget-uri
  • user-avatar
    Intrare

    Meteo pe oră la Kitzbuhel

    Astăzi, 26 Iunie, Luni

    Timp Temperatura Precipitaţii Vânt Presiune Umiditate
    00:00 +12°C° 0 mm 2 m/s 677 mmHg 91%
    01:00 +12°C° 0 mm 2 m/s 677 mmHg 91%
    02:00 +12°C° 0 mm 2 m/s 677 mmHg 90%
    03:00 +12°C° 0 mm 2 m/s 677 mmHg 89%
    04:00 +12°C° 0 mm 2 m/s 677 mmHg 88%
    05:00 +14°C° 0 mm 1 m/s 677 mmHg 84%
    06:00 +15°C° 0 mm 1 m/s 677 mmHg 81%
    07:00 +19°C° 0 mm 1 m/s 678 mmHg 76%
    08:00 +21°C° 0 mm 1 m/s 678 mmHg 68%
    09:00 +22°C° 0 mm 1 m/s 678 mmHg 61%
    10:00 +24°C° 0 mm 1 m/s 678 mmHg 54%
    11:00 +25°C° 0 mm 1 m/s 678 mmHg 52%
    12:00 +26°C° 0 mm 1 m/s 678 mmHg 51%
    13:00 +27°C° 0 mm 1 m/s 678 mmHg 49%
    14:00 +26°C° 0,1 mm 1 m/s 678 mmHg 53%
    15:00 +26°C° 0,1 mm 1 m/s 677 mmHg 56%
    16:00 +26°C° 0,1 mm 2 m/s 677 mmHg 59%
    17:00 +24°C° 0,4 mm 2 m/s 677 mmHg 68%
    18:00 +23°C° 0,4 mm 1 m/s 676 mmHg 76%
    19:00 +22°C° 0,4 mm 1 m/s 676 mmHg 85%
    20:00 +20°C° 0,3 mm 1 m/s 676 mmHg 87%
    21:00 +19°C° 0,3 mm 1 m/s 676 mmHg 89%
    22:00 +16°C° 0,3 mm 1 m/s 676 mmHg 92%
    23:00 +16°C° 0,4 mm 1 m/s 676 mmHg 92%

    Mâine, 27 Iunie, Marţi

    Timp Temperatura Precipitaţii Vânt Presiune Umiditate
    00:00 +16°C° 0,4 mm 1 m/s 676 mmHg 92%
    01:00 +16°C° 0,4 mm 1 m/s 676 mmHg 92%
    02:00 +16°C° 0,3 mm 2 m/s 675 mmHg 92%
    03:00 +15°C° 0,3 mm 2 m/s 675 mmHg 92%
    04:00 +15°C° 0,3 mm 2 m/s 675 mmHg 92%
    05:00 +16°C° 0,4 mm 2 m/s 675 mmHg 92%
    06:00 +18°C° 0,4 mm 1 m/s 675 mmHg 91%
    07:00 +18°C° 0,4 mm 1 m/s 675 mmHg 90%
    08:00 +19°C° 0,2 mm 1 m/s 675 mmHg 85%
    09:00 +21°C° 0,2 mm 1 m/s 675 mmHg 80%
    10:00 +22°C° 0,2 mm 1 m/s 676 mmHg 74%
    11:00 +23°C° 0,3 mm 1 m/s 676 mmHg 70%
    12:00 +24°C° 0,3 mm 1 m/s 675 mmHg 67%
    13:00 +25°C° 0,3 mm 1 m/s 675 mmHg 63%
    14:00 +25°C° 0,5 mm 1 m/s 675 mmHg 64%
    15:00 +25°C° 0,5 mm 1 m/s 675 mmHg 65%
    16:00 +25°C° 0,5 mm 1 m/s 674 mmHg 66%
    17:00 +24°C° 0,6 mm 1 m/s 674 mmHg 73%
    18:00 +23°C° 0,6 mm 1 m/s 674 mmHg 80%
    19:00 +22°C° 0,6 mm 1 m/s 674 mmHg 88%
    20:00 +19°C° 0,2 mm 2 m/s 673 mmHg 89%
    21:00 +18°C° 0,2 mm 2 m/s 673 mmHg 90%
    22:00 +16°C° 0,2 mm 2 m/s 673 mmHg 92%
    23:00 +16°C° 0 mm 2 m/s 673 mmHg 92%

    Poimâine, 28 Iunie, Miercuri

    Timp Temperatura Precipitaţii Vânt Presiune Umiditate
    00:00 +16°C° 0 mm 2 m/s 672 mmHg 91%
    01:00 +15°C° 0 mm 2 m/s 672 mmHg 91%
    02:00 +15°C° 0 mm 2 m/s 671 mmHg 91%
    03:00 +15°C° 0 mm 2 m/s 671 mmHg 90%
    04:00 +15°C° 0 mm 2 m/s 670 mmHg 90%
    05:00 +16°C° 0 mm 2 m/s 670 mmHg 88%
    06:00 +17°C° 0 mm 2 m/s 670 mmHg 86%
    07:00 +18°C° 0 mm 2 m/s 670 mmHg 85%
    08:00 +20°C° 0,1 mm 2 m/s 671 mmHg 77%
    09:00 +23°C° 0,1 mm 2 m/s 671 mmHg 69%
    10:00 +25°C° 0,1 mm 2 m/s 671 mmHg 61%
    11:00 +25°C° 0,6 mm 3 m/s 671 mmHg 63%
    12:00 +25°C° 0,6 mm 3 m/s 670 mmHg 64%
    13:00 +25°C° 0,6 mm 3 m/s 670 mmHg 65%
    14:00 +24°C° 1,4 mm 3 m/s 670 mmHg 70%
    15:00 +22°C° 1,4 mm 3 m/s 669 mmHg 75%
    16:00 +21°C° 1,4 mm 2 m/s 669 mmHg 80%
    17:00 +21°C° 1,1 mm 2 m/s 668 mmHg 84%
    18:00 +20°C° 1,1 mm 2 m/s 668 mmHg 88%
    19:00 +20°C° 1,1 mm 1 m/s 667 mmHg 92%
    20:00 +18°C° 0,9 mm 2 m/s 667 mmHg 93%
    21:00 +17°C° 0,9 mm 2 m/s 666 mmHg 94%
    22:00 +16°C° 0,9 mm 2 m/s 666 mmHg 94%
    23:00 +16°C° 0,4 mm 2 m/s 665 mmHg 94%

    29 Iunie, Joi

    Timp Temperatura Precipitaţii Vânt Presiune Umiditate
    00:00 +15°C° 0,4 mm 2 m/s 665 mmHg 94%
    01:00 +15°C° 0,4 mm 2 m/s 664 mmHg 93%
    02:00 +14°C° 0,3 mm 2 m/s 664 mmHg 94%
    03:00 +14°C° 0,3 mm 2 m/s 664 mmHg 94%
    04:00 +12°C° 0,3 mm 3 m/s 663 mmHg 94%
    05:00 +13°C° 0,5 mm 3 m/s 664 mmHg 93%
    06:00 +13°C° 0,5 mm 3 m/s 664 mmHg 92%
    07:00 +14°C° 0,5 mm 3 m/s 665 mmHg 91%
    08:00 +14°C° 0,5 mm 3 m/s 665 mmHg 89%
    09:00 +16°C° 0,5 mm 3 m/s 666 mmHg 87%
    10:00 +16°C° 0,5 mm 3 m/s 667 mmHg 84%
    11:00 +16°C° 1,2 mm 3 m/s 667 mmHg 83%
    12:00 +16°C° 1,2 mm 2 m/s 667 mmHg 82%
    13:00 +16°C° 1,2 mm 2 m/s 668 mmHg 81%
    14:00 +16°C° 1 mm 2 m/s 668 mmHg 82%
    15:00 +16°C° 1 mm 2 m/s 668 mmHg 83%
    16:00 +16°C° 1 mm 2 m/s 669 mmHg 84%
    17:00 +15°C° 1 mm 1 m/s 669 mmHg 87%
    18:00 +14°C° 1 mm 1 m/s 669 mmHg 90%
    19:00 +13°C° 1 mm 1 m/s 669 mmHg 94%
    20:00 +13°C° 0,5 mm 1 m/s 670 mmHg 94%
    21:00 +12°C° 0,5 mm 1 m/s 670 mmHg 94%
    22:00 +11°C° 0,5 mm 1 m/s 670 mmHg 94%
    23:00 +11°C° 0,3 mm 1 m/s 670 mmHg 93%

    30 Iunie, Vineri

    Timp Temperatura Precipitaţii Vânt Presiune Umiditate
    00:00 +11°C° 0,3 mm 1 m/s 670 mmHg 92%
    01:00 +10°C° 0,3 mm 1 m/s 671 mmHg 90%
    02:00 +10°C° 0,4 mm 1 m/s 671 mmHg 91%
    03:00 +10°C° 0,4 mm 1 m/s 671 mmHg 91%
    04:00 +10°C° 0,4 mm 1 m/s 671 mmHg 91%
    05:00 +10°C° 0,5 mm 1 m/s 671 mmHg 90%
    06:00 +11°C° 0,5 mm 1 m/s 672 mmHg 89%
    07:00 +12°C° 0,5 mm 1 m/s 672 mmHg 89%
    08:00 +13°C° 0,2 mm 1 m/s 673 mmHg 81%
    09:00 +15°C° 0,2 mm 2 m/s 673 mmHg 74%
    10:00 +16°C° 0,2 mm 2 m/s 674 mmHg 67%
    11:00 +17°C° 0,4 mm 2 m/s 674 mmHg 66%
    12:00 +17°C° 0,4 mm 3 m/s 674 mmHg 66%
    13:00 +18°C° 0,4 mm 3 m/s 674 mmHg 66%
    14:00 +17°C° 0,8 mm 3 m/s 674 mmHg 68%
    15:00 +17°C° 0,8 mm 3 m/s 673 mmHg 71%
    16:00 +17°C° 0,8 mm 3 m/s 673 mmHg 73%
    17:00 +16°C° 0,8 mm 2 m/s 673 mmHg 78%
    18:00 +15°C° 0,8 mm 2 m/s 673 mmHg 82%
    19:00 +14°C° 0,8 mm 2 m/s 674 mmHg 87%
    20:00 +12°C° 0,6 mm 2 m/s 673 mmHg 90%
    21:00 +10°C° 0,6 mm 1 m/s 673 mmHg 92%
    22:00 +8°C° 0,6 mm 1 m/s 673 mmHg 95%
    23:00 +8°C° 0,2 mm 1 m/s 673 mmHg 93%

    1 Iulie, Sâmbătă

    Timp Temperatura Precipitaţii Vânt Presiune Umiditate
    00:00 +8°C° 0,2 mm 1 m/s 673 mmHg 92%
    01:00 +8°C° 0,2 mm 1 m/s 673 mmHg 90%
    02:00 +8°C° 0 mm 1 m/s 673 mmHg 90%
    03:00 +8°C° 0 mm 1 m/s 673 mmHg 89%
    04:00 +7°C° 0 mm 1 m/s 672 mmHg 88%
    05:00 +10°C° 0 mm 1 m/s 673 mmHg 84%
    06:00 +12°C° 0 mm 1 m/s 674 mmHg 80%
    07:00 +14°C° 0 mm 1 m/s 674 mmHg 76%
    08:00 +15°C° 0,1 mm 1 m/s 674 mmHg 72%
    09:00 +18°C° 0,1 mm 1 m/s 674 mmHg 67%
    10:00 +18°C° 0,1 mm 2 m/s 675 mmHg 63%
    11:00 +18°C° 0,4 mm 2 m/s 675 mmHg 64%
    12:00 +19°C° 0,4 mm 2 m/s 675 mmHg 65%
    13:00 +19°C° 0,4 mm 2 m/s 674 mmHg 66%
    14:00 +19°C° 0,7 mm 2 m/s 675 mmHg 69%
    15:00 +19°C° 0,7 mm 2 m/s 675 mmHg 73%
    16:00 +19°C° 0,7 mm 1 m/s 675 mmHg 76%
    17:00 +18°C° 0,7 mm 1 m/s 675 mmHg 82%
    18:00 +16°C° 0,7 mm 1 m/s 675 mmHg 87%
    19:00 +15°C° 0,7 mm 1 m/s 675 mmHg 92%
    20:00 +14°C° 0,4 mm 1 m/s 675 mmHg 94%
    21:00 +12°C° 0,4 mm 1 m/s 676 mmHg 96%
    22:00 +10°C° 0,4 mm 2 m/s 676 mmHg 97%
    23:00 +10°C° 0,2 mm 2 m/s 676 mmHg 97%
    Arată mai mult